BNL103 HLLB-DTTA

Flight info

Callsign BNL103
Flight time N/A
Altitude 38000
Route BNA M622 INDOT DCT SONAK UM978 DIDON
Aircraft A320/M-SDE3FGHIRWY/LB1

Departure

Time 2026-04-24 19:48
Airport Benina International Airport (HLLB)

Arrival

Time N/A
Airport Tunis Carthage International Airport (DTTA)
Time Latitude Longitude Altitude Speed Heading
2026-04-24 19:25 32.08819 20.26822 415 ft 0 kts 356°
2026-04-24 19:43 32.08818 20.26822 414 ft 2 kts 356°
2026-04-24 19:44 32.08793 20.26827 410 ft 4 kts 351°
2026-04-24 19:44 32.08767 20.26831 414 ft 4 kts
2026-04-24 19:44 32.08744 20.26825 414 ft 4 kts 56°
2026-04-24 19:44 32.08740 20.26813 414 ft 1 kts 86°
2026-04-24 19:45 32.08740 20.26811 414 ft 0 kts 86°
2026-04-24 19:46 32.08745 20.26892 414 ft 22 kts 86°
2026-04-24 19:47 32.08778 20.27061 414 ft 22 kts 61°
2026-04-24 19:47 32.08850 20.27212 413 ft 18 kts 60°
2026-04-24 19:47 32.08943 20.27267 412 ft 18 kts 337°
2026-04-24 19:47 32.09099 20.27161 414 ft 50 kts 330°
2026-04-24 19:48 32.09599 20.26824 411 ft 113 kts 330°
2026-04-24 19:48 32.10436 20.26259 457 ft 158 kts 330°
2026-04-24 19:48 32.12324 20.25089 1814 ft 160 kts 337°
2026-04-24 19:49 32.14737 20.23869 2335 ft 217 kts 335°
2026-04-24 19:49 32.17162 20.21432 3798 ft 243 kts 309°
2026-04-24 19:50 32.20108 20.16343 6663 ft 257 kts 308°
2026-04-24 19:50 32.21186 20.14624 7510 ft 262 kts 309°
2026-04-24 19:51 32.23453 20.11156 9302 ft 269 kts 309°
2026-04-24 19:51 32.24608 20.09386 10149 ft 275 kts 308°
2026-04-24 19:52 32.27068 20.05515 11079 ft 310 kts 307°
2026-04-24 19:52 32.28380 20.03466 11866 ft 315 kts 307°
2026-04-24 19:52 32.29714 20.01395 12697 ft 318 kts 307°
2026-04-24 19:52 32.31056 19.99303 13518 ft 320 kts 307°
2026-04-24 19:53 32.32398 19.97200 14372 ft 321 kts 307°
2026-04-24 19:53 32.33744 19.95092 15190 ft 321 kts 307°
2026-04-24 19:53 32.36446 19.90860 16715 ft 324 kts 306°
2026-04-24 19:54 32.37808 19.88728 17435 ft 326 kts 306°
2026-04-24 19:54 32.39185 19.86588 18152 ft 327 kts 307°
2026-04-24 19:54 32.40627 19.84492 18841 ft 329 kts 308°
2026-04-24 19:54 32.42084 19.82382 19478 ft 332 kts 308°
2026-04-24 19:55 32.43052 19.80976 19902 ft 334 kts 308°
2026-04-24 19:55 32.45031 19.78110 20720 ft 338 kts 308°
2026-04-24 19:55 32.46524 19.75940 21326 ft 341 kts 307°
2026-04-24 19:55 32.48037 19.73724 21685 ft 352 kts 307°
2026-04-24 19:56 32.49612 19.71423 21819 ft 367 kts 308°
2026-04-24 19:56 32.51250 19.69033 22005 ft 378 kts 308°
2026-04-24 19:56 32.52924 19.66594 22396 ft 383 kts 308°
2026-04-24 19:56 32.54594 19.64151 22815 ft 387 kts 308°
2026-04-24 19:57 32.56289 19.61658 23241 ft 390 kts 308°
2026-04-24 19:57 32.58000 19.59148 23678 ft 393 kts 308°
2026-04-24 19:57 32.59731 19.56620 24106 ft 396 kts 308°
2026-04-24 19:57 32.61463 19.54068 24511 ft 398 kts 308°
2026-04-24 19:58 32.63206 19.51499 24894 ft 401 kts 308°
2026-04-24 19:58 32.64968 19.48916 25265 ft 404 kts 308°
2026-04-24 19:58 32.66741 19.46315 25627 ft 407 kts 308°
2026-04-24 19:58 32.68523 19.43694 25996 ft 409 kts 308°
2026-04-24 19:59 32.70313 19.41058 26341 ft 411 kts 308°
2026-04-24 19:59 32.72116 19.38404 26650 ft 414 kts 308°
2026-04-24 19:59 32.73922 19.35730 26976 ft 416 kts 308°
2026-04-24 19:59 32.75741 19.33044 27271 ft 418 kts 308°
2026-04-24 20:00 32.77573 19.30333 27562 ft 420 kts 308°
2026-04-24 20:00 32.79401 19.27617 27843 ft 422 kts 308°
2026-04-24 20:00 32.81251 19.24899 28101 ft 424 kts 308°
2026-04-24 20:00 32.83129 19.22190 28407 ft 424 kts 309°
2026-04-24 20:01 32.84999 19.19488 28773 ft 423 kts 309°
2026-04-24 20:01 32.86860 19.16799 29145 ft 421 kts 308°
2026-04-24 20:01 32.88698 19.14138 29496 ft 420 kts 308°
2026-04-24 20:01 32.90554 19.11453 29822 ft 420 kts 308°
2026-04-24 20:02 32.91802 19.09637 30069 ft 419 kts 308°
2026-04-24 20:02 32.94246 19.06086 30538 ft 418 kts 308°
2026-04-24 20:02 32.96086 19.03405 30859 ft 418 kts 308°
2026-04-24 20:02 32.97926 19.00726 31181 ft 418 kts 308°
2026-04-24 20:03 32.99760 18.98047 31494 ft 418 kts 309°
2026-04-24 20:03 33.01600 18.95369 31824 ft 417 kts 309°
2026-04-24 20:03 33.03443 18.92691 32137 ft 417 kts 309°
2026-04-24 20:03 33.05287 18.90003 32451 ft 417 kts 309°
2026-04-24 20:04 33.07128 18.87327 32756 ft 417 kts 309°
2026-04-24 20:04 33.08963 18.84648 33055 ft 417 kts 309°
2026-04-24 20:04 33.10791 18.81966 33351 ft 417 kts 309°
2026-04-24 20:04 33.12617 18.79285 33653 ft 416 kts 309°
2026-04-24 20:05 33.14445 18.76612 33954 ft 416 kts 309°
2026-04-24 20:05 33.16279 18.73935 34243 ft 416 kts 309°
2026-04-24 20:05 33.18100 18.71259 34529 ft 416 kts 309°
2026-04-24 20:05 33.19925 18.68584 34836 ft 415 kts 309°
2026-04-24 20:06 33.21739 18.65908 35130 ft 415 kts 308°
2026-04-24 20:06 33.23561 18.63238 35416 ft 415 kts 308°
2026-04-24 20:06 33.25381 18.60564 35703 ft 414 kts 308°
2026-04-24 20:06 33.27194 18.57890 35965 ft 414 kts 308°
2026-04-24 20:07 33.28396 18.56123 36113 ft 414 kts 308°
2026-04-24 20:07 33.30815 18.52542 36426 ft 414 kts 308°
2026-04-24 20:07 33.32627 18.49863 36641 ft 414 kts 308°
2026-04-24 20:07 33.34413 18.47225 36885 ft 413 kts 308°
2026-04-24 20:08 33.35632 18.45426 37054 ft 412 kts 308°
2026-04-24 20:08 33.37430 18.42776 37307 ft 410 kts 308°
2026-04-24 20:08 33.39799 18.39280 37648 ft 407 kts 307°
2026-04-24 20:08 33.41579 18.36638 37848 ft 407 kts 307°
2026-04-24 20:09 33.43333 18.33981 38004 ft 408 kts 306°
2026-04-24 20:09 33.46282 18.29484 38079 ft 411 kts 307°
2026-04-24 20:10 33.49830 18.24112 38091 ft 411 kts 307°
2026-04-24 20:10 33.53370 18.18723 38087 ft 412 kts 307°
2026-04-24 20:11 33.56905 18.13327 38091 ft 412 kts 307°
2026-04-24 20:11 33.60445 18.07924 38091 ft 412 kts 307°
2026-04-24 20:12 33.63978 18.02515 38094 ft 412 kts 307°
2026-04-24 20:12 33.67499 17.97139 38090 ft 412 kts 307°
2026-04-24 20:13 33.71030 17.91722 38087 ft 412 kts 307°
2026-04-24 20:13 33.74565 17.86286 38092 ft 413 kts 307°
2026-04-24 20:14 33.78102 17.80838 38092 ft 413 kts 307°
2026-04-24 20:14 33.81642 17.75396 38093 ft 414 kts 307°
2026-04-24 20:15 33.85182 17.69933 38093 ft 414 kts 307°
2026-04-24 20:15 33.88714 17.64467 38100 ft 413 kts 307°
2026-04-24 20:16 33.92251 17.59012 38103 ft 413 kts 307°
2026-04-24 20:16 33.95749 17.53574 38110 ft 413 kts 307°
2026-04-24 20:17 33.99269 17.48106 38109 ft 412 kts 307°
2026-04-24 20:17 34.04554 17.39899 38109 ft 413 kts 307°
2026-04-24 20:18 34.08073 17.34417 38104 ft 414 kts 307°
2026-04-24 20:18 34.11599 17.28925 38101 ft 414 kts 307°
2026-04-24 20:19 34.15103 17.23457 38105 ft 414 kts 307°
2026-04-24 20:19 34.18605 17.17935 38107 ft 414 kts 307°
2026-04-24 20:20 34.22132 17.12423 38106 ft 415 kts 307°
2026-04-24 20:20 34.25654 17.06903 38108 ft 415 kts 307°
2026-04-24 20:21 34.29171 17.01370 38107 ft 415 kts 308°
2026-04-24 20:21 34.32692 16.95810 38108 ft 416 kts 306°
2026-04-24 20:22 34.35624 16.89774 38111 ft 417 kts 300°
2026-04-24 20:22 34.38417 16.83616 38115 ft 417 kts 299°
2026-04-24 20:23 34.41207 16.77450 38115 ft 418 kts 300°
2026-04-24 20:23 34.43998 16.71276 38118 ft 417 kts 300°
2026-04-24 20:24 34.46784 16.65108 38119 ft 417 kts 300°
2026-04-24 20:24 34.49563 16.58929 38124 ft 417 kts 300°
2026-04-24 20:25 34.52338 16.52746 38127 ft 417 kts 300°
2026-04-24 20:25 34.55095 16.46597 38126 ft 418 kts 300°
2026-04-24 20:26 34.57872 16.40401 38128 ft 417 kts 300°
2026-04-24 20:26 34.60645 16.34216 38129 ft 418 kts 300°
2026-04-24 20:27 34.63415 16.28003 38129 ft 418 kts 299°
2026-04-24 20:27 34.66176 16.21788 38131 ft 418 kts 299°
2026-04-24 20:28 34.68939 16.15588 38133 ft 417 kts 299°
2026-04-24 20:28 34.71679 16.09413 38134 ft 417 kts 300°
2026-04-24 20:29 34.74438 16.03192 38134 ft 417 kts 300°
2026-04-24 20:29 34.77178 15.96977 38134 ft 417 kts 300°
2026-04-24 20:30 34.79925 15.90756 38133 ft 417 kts 300°
2026-04-24 20:30 34.82658 15.84518 38133 ft 418 kts 300°
2026-04-24 20:31 34.85412 15.78292 38142 ft 418 kts 300°
2026-04-24 20:31 34.88150 15.72045 38133 ft 418 kts 299°
2026-04-24 20:32 34.90899 15.65798 38131 ft 418 kts 300°
2026-04-24 20:32 34.93636 15.59534 38132 ft 418 kts 299°
2026-04-24 20:33 34.96361 15.53308 38135 ft 419 kts 299°
2026-04-24 20:33 34.99090 15.47027 38134 ft 419 kts 299°
2026-04-24 20:34 35.01822 15.40742 38134 ft 420 kts 300°
2026-04-24 20:34 35.04560 15.34442 38138 ft 420 kts 299°
2026-04-24 20:35 35.07285 15.28134 38141 ft 421 kts 299°
2026-04-24 20:35 35.10027 15.21817 38149 ft 421 kts 299°
2026-04-24 20:36 35.12751 15.15492 38151 ft 421 kts 299°
2026-04-24 20:36 35.15489 15.09163 38152 ft 421 kts 299°
2026-04-24 20:37 35.18211 15.02824 38144 ft 421 kts 299°
2026-04-24 20:37 35.20937 14.96482 38150 ft 421 kts 299°
2026-04-24 20:38 35.23645 14.90166 38153 ft 421 kts 299°
2026-04-24 20:38 35.24559 14.88015 38154 ft 421 kts 299°